Location: Bear Valley
(38.4650°N, 120.0390°W)
Time: 21:46:09
(UTC-08:00)

N. Korean satellite - Visible Passes

Search period start: 21 November 2017 00:00
Search period end: 01 December 2017 00:00
Orbit: 460 x 514 km, 97.2° (Epoch: 21 November)

Date Brightness Start Highest point End Pass type
(mag) Time Alt. Az. Time Alt. Az. Time Alt. Az.
21 Nov 10.4 05:39:37 10° E 05:40:24 10° E 05:41:10 10° ESE visible
21 Nov 6.6 17:45:14 10° SSE 17:48:35 49° ENE 17:52:02 10° N visible
22 Nov 7.6 17:22:22 10° SE 17:25:13 24° ENE 17:28:09 10° NNE visible
22 Nov 9.5 18:56:23 10° SW 18:58:43 17° W 19:01:05 10° NW visible
23 Nov 8.3 18:31:54 10° SSW 18:35:07 33° W 18:38:23 10° NNW visible
24 Nov 9.7 06:00:45 10° NE 06:03:37 21° E 06:06:28 10° SE visible
24 Nov 6.7 18:08:04 10° S 18:11:34 75° W 18:15:09 10° NNW visible
25 Nov 10.4 05:39:11 10° E 05:39:57 10° E 05:40:43 10° ESE visible
25 Nov 6.7 17:44:42 10° SSE 17:48:06 49° ENE 17:51:35 10° N visible
26 Nov 7.6 17:21:49 10° SE 17:24:43 24° ENE 17:27:40 10° NNE visible
26 Nov 9.5 18:55:49 10° SW 18:58:13 17° W 19:00:39 10° NW visible
27 Nov 8.3 06:23:09 10° NNE 06:26:43 40° E 06:30:15 10° S visible
27 Nov 8.3 18:31:21 10° SSW 18:34:35 34° W 18:37:54 10° NNW visible
28 Nov 9.7 06:00:15 10° NE 06:03:07 20° E 06:05:57 10° SE visible
28 Nov 6.7 18:07:30 10° S 18:11:01 76° WSW 18:14:38 10° NNW visible
29 Nov 10.4 05:38:43 10° E 05:39:25 10° E 05:40:08 10° ESE visible
29 Nov 6.7 17:44:07 10° SSE 17:47:32 49° ENE 17:51:04 10° N visible
30 Nov 7.6 17:21:13 10° SE 17:24:09 24° ENE 17:27:08 10° NNE visible
30 Nov 9.5 18:55:10 10° SW 18:57:37 18° W 19:00:07 10° NW visible
